STARLINK-32436 (61215 NORAD) Tracking and Keplerian Element Data

This shows tracking and keplerian element data for the satellite.

Feedback or suggestion? Click here.




ElementValue
Catalog61215
NameSTARLINK-32436
Epoch Orbit477
Epoch Day286.91668981
Epoch Year2024
RAAN186.5927
Inclination53.1595
Eccentricity0.0001493
Argument of Perigee114.2971
Mean Anonmoly17.8459
Mean Motion15.49283993
Decay Rate0.0003991
L11 61215U 24171R 24286.91668981 .00039910 00000+0 72260-3 0 9991
L22 61215 53.1595 186.5927 0001493 114.2971 17.8459 15.49283993 4770



Live tracking and technical data element details for STARLINK-32436 (NORAD 61215). STARLINK-32436 can be tracked NOW for your location showing map with azimuth and elevation plus other details from your city location.







IsCatalogInMostPopularTable: catalog: 61215, numindb: 25
Update: records affected: 1



GetName: 61215 STARLINK-32436

Hit Count: updated at: Wed, 04 Dec 2024 13:31:52 GMT